[[{"header":{"parameterUnit":"m.s-1","parameterCategory":1,"la1":30.2991,"la2":30.254,"lo1":-89.0895,"lo2":-89.0444,"dy":0.0017,"dx":0.0017,"nx":28,"ny":28,"refTime":"2025-11-05T09:00:00:Z","depth":0,"parameterNumber":2,"parameterNumberName":"U-component_of_WINDS"},"data":[0,0,0,0,0,0,0,0,0,0,0,0,0,0,0,0,0,0,0,0,0,0,0,0,0,0,0,0,0,0,0,0,0,0,0,0,0,0,0,0,0,0,0,0,0,0,0,0,0,0,0,0,0,0,0,0,0,0,-2.5744,-2.5745,0,-2.5832,-2.5833,-2.5834,-2.5778,-2.5775,-2.5773,-2.577,-2.5862,-2.5867,-2.5871,0,0,0,0,0,0,0,0,0,0,0,0,0,-2.553,-2.5534,-2.5744,-2.5745,-2.5746,-2.5832,-2.5833,-2.5834,-2.5778,-2.5775,-2.5772,-2.5769,-2.586,-2.5866,-2.5872,0,0,0,0,0,0,0,0,0,0,0,0,0,-2.5621,-2.5535,-2.5744,-2.5729,-2.5728,-2.5831,-2.5833,-2.5834,-2.5779,-2.5775,-2.5771,-2.5767,-2.5858,-2.5866,-2.5873,-2.5996,0,0,-2.5895,-2.5898,0,0,0,0,0,0,0,0,-2.5616,-2.5629,-2.573,-2.573,-2.573,-2.579,-2.5791,-2.5889,-2.578,-2.576,-2.577,-2.5766,-2.5841,-2.585,-2.5875,-2.6001,-2.6005,-2.5896,-2.59,-2.5903,-2.5905,0,0,0,0,0,0,0,-2.5609,-2.5625,-2.5779,-2.5731,-2.5731,-2.5718,-2.5727,-2.5809,-2.5822,-2.5761,-2.5757,-2.5768,-2.584,-2.5868,-2.5877,-2.6006,-2.5896,-2.5902,-2.5907,-2.5909,-2.6239,-2.6244,0,0,0,0,0,0,-2.5604,-2.562,-2.5776,-2.5781,-2.5662,-2.5725,-2.5735,-2.5774,-2.582,-2.5824,-2.5772,-2.5765,-2.5857,-2.5868,-2.588,-2.6029,-2.5903,-2.591,-2.5914,-2.6235,-2.624,-2.6245,0,0,0,0,0,0,-2.56,-2.5619,-2.5772,-2.57,-2.5718,-2.5733,-2.5778,-2.5778,-2.5806,-2.5828,-2.583,-2.5798,-2.5855,-2.5869,-2.5968,-2.6032,-2.5913,-2.592,-2.623,-2.6237,-2.6243,-2.6329,0,0,0,0,0,0,-2.5594,-2.5617,-2.5664,-2.5701,-2.5722,-2.5859,-2.5782,-2.5783,-2.5818,-2.5811,-2.5853,-2.5856,-2.5853,-2.5957,-2.5975,-2.604,-2.5926,-2.6224,-2.6233,-2.6241,-2.6321,-2.6338,-2.6352,0,0,0,0,0,-2.5586,-2.5685,-2.5667,-2.5686,-2.5781,-2.5863,-2.5875,-2.5869,-2.5824,-2.5871,-2.5886,-2.5855,-2.6021,-2.5968,-2.5988,-2.6055,-2.622,-2.6231,-2.624,-2.6313,-2.6334,-2.6352,0,0,0,0,0,0,-2.5656,-2.5689,-2.567,-2.5783,-2.5821,-2.5853,-2.5913,-2.5891,-2.5942,-2.5933,-2.5923,-2.5933,-2.6037,-2.6055,-2.5995,-2.6178,-2.6114,-2.6128,-2.6163,-2.6183,-2.6198,-2.6193,-2.5932,0,0,0,0,0,-2.5684,-2.5747,-2.5773,-2.5871,-2.589,-2.5899,-2.5934,-2.5926,-2.5964,-2.598,-2.6002,-2.6041,-2.6102,-2.6143,-2.62,-2.6322,-2.6331,-2.6378,-2.6394,-2.6407,-2.642,-2.6488,-2.651,-2.6278,-2.6277,-2.6277,0,0,-2.5744,-2.577,-2.581,-2.5885,-2.5913,-2.598,-2.5913,-2.5986,-2.6036,-2.5991,-2.6087,-2.6104,-2.6147,-2.6258,-2.6308,-2.6277,-2.6486,-2.6419,-2.6429,-2.6436,-2.65,-2.6522,-2.6542,-2.6284,-2.6283,-2.6282,0,0,-2.5887,-2.5912,-2.5997,-2.6026,-2.607,-2.6074,-2.6095,-2.6131,-2.6141,-2.6236,-2.6205,-2.6264,-2.6369,-2.6401,-2.6432,-2.6587,-2.6562,-2.6606,-2.669,-2.6756,-2.6775,-2.6791,-2.6849,-2.687,-2.6619,-2.6619,-2.6619,0,-2.5956,-2.6055,-2.6044,-2.612,-2.6154,-2.6116,-2.6203,-2.6232,-2.6292,-2.6318,-2.6281,-2.6413,-2.6439,-2.6558,-2.6596,-2.6621,-2.6646,-2.6603,-2.6773,-2.6789,-2.6804,-2.6859,-2.6881,-2.6624,-2.6624,-2.6623,-2.6622,0,-2.6139,-2.6208,-2.6271,-2.633,-2.6371,-2.6452,-2.6454,-2.6498,-2.6485,-2.6494,-2.6592,-2.6622,-2.6686,-2.6713,-2.6701,-2.6831,-2.6811,-2.6773,-2.6709,-2.6832,-2.6884,-2.6905,-2.6632,-2.663,-2.6628,-2.6627,0,0,-2.633,-2.6382,-2.6406,-2.6433,-2.6477,-2.6531,-2.661,-2.6672,-2.671,-2.6752,-2.682,-2.691,-2.6876,-2.691,-2.6902,-2.696,-2.7084,-2.6916,-2.6917,-2.6949,-2.7232,-2.7262,-2.7287,-2.7066,-2.707,-2.7073,-2.723,0,-2.6478,-2.6617,-2.661,-2.674,-2.6805,-2.6769,-2.6839,-2.6874,-2.6885,-2.6941,-2.6952,-2.7017,-2.6966,-2.6987,-2.7042,-2.7057,-2.7142,-2.7045,-2.7131,-2.7135,-2.7125,-2.7314,-2.7345,-2.7492,-2.7249,-2.7253,-2.7255,0,-2.667,-2.672,-2.6857,-2.6893,-2.692,-2.6982,-2.7039,-2.7093,-2.7133,-2.7136,-2.7175,-2.7157,-2.7238,-2.717,-2.7283,-2.7218,-2.7252,-2.7265,-2.727,-2.7281,-2.7205,-2.7332,-2.7538,-2.7561,-2.7287,-2.7284,-2.7282,0,-2.68,-2.69,-2.6996,-2.7019,-2.7063,-2.7108,-2.7129,-2.7164,-2.7202,-2.7251,-2.7276,-2.7334,-2.7367,-2.7413,-2.7412,-2.7361,-2.7528,-2.7458,-2.7535,-2.7535,-2.7574,-2.7572,-2.7792,-2.7591,-2.7591,-2.759,-2.759,0,-2.6969,-2.7055,-2.7055,-2.7114,-2.721,-2.72,-2.7295,-2.731,-2.7343,-2.7405,-2.7376,-2.7436,-2.7429,-2.7489,-2.7488,-2.7584,-2.7598,-2.7605,-2.7604,-2.7609,-2.7609,-2.7634,-2.7625,-2.7596,-2.7595,-2.7594,-2.7593,0,-2.7131,-2.7134,-2.7237,-2.7269,-2.728,-2.7349,-2.7377,-2.7434,-2.7441,-2.752,-2.7538,-2.755,-2.7619,-2.7622,-2.7701,-2.7701,-2.7818,-2.7804,-2.7805,-2.7804,-2.7882,-2.7876,-2.8127,-2.8161,-2.7935,-2.7937,-2.7939,0,-2.724,-2.7306,-2.7345,-2.7385,-2.7408,-2.7472,-2.7511,-2.7503,-2.7544,-2.7594,-2.7646,-2.7712,-2.7765,-2.7877,-2.7893,-2.7954,-2.7944,-2.8028,-2.7953,-2.7957,-2.7949,-2.7947,-2.7955,-2.8044,-2.8046,-2.8048,-2.805,0,-2.7434,-2.7432,-2.7489,-2.7547,-2.7594,-2.7639,-2.768,-2.7714,-2.7711,-2.776,-2.783,-2.7871,-2.7952,-2.8019,-2.8078,-2.81,-2.8076,-2.8073,-2.8094,-2.8102,-2.8101,-2.8106,-2.7849,-2.8068,-2.8066,-2.8065,-2.8064,-2.8063,-2.7575,-2.7633,-2.767,-2.7734,-2.7765,-2.7804,-2.786,-2.7874,-2.7932,-2.7997,-2.7989,-2.8068,-2.8106,-2.8183,-2.8209,-2.8272,-2.8243,-2.8274,-2.8282,-2.8291,-2.8301,-2.8088,-2.8282,-2.8281,-2.8281,-2.8281,-2.828,0,-2.7771,-2.7793,-2.7852,-2.7911,-2.7962,-2.7933,-2.7977,-2.8023,-2.8092,-2.813,-2.8182,-2.8264,-2.8329,-2.835,-2.8413,-2.8459,-2.845,-2.8476,-2.8474,-2.848,-2.8321,-2.8297,-2.8483,-2.8483,-2.8483,-2.8483,-2.8483,-2.8482,-2.7879,-2.7975,-2.7978,-2.8089,-2.811,-2.8187,-2.8216,-2.8253,-2.8283,-2.8375,-2.8429,-2.8441,-2.8473,-2.8538,-2.8597,-2.8601,-2.8628,-2.866,-2.866,-2.8511,-2.8491,-2.8472,-2.845,-2.8664,-2.8665,-2.8815,-2.8816,-2.8817]},{"header":{"parameterUnit":"m.s-1","parameterCategory":1,"la1":30.2991,"la2":30.254,"lo1":-89.0895,"lo2":-89.0444,"dy":0.0017,"dx":0.0017,"nx":28,"ny":28,"refTime":"2025-11-05T09:00:00:Z","depth":0,"parameterNumber":3,"parameterNumberName":"V-component_of_WINDS"},"data":[0,0,0,0,0,0,0,0,0,0,0,0,0,0,0,0,0,0,0,0,0,0,0,0,0,0,0,0,0,0,0,0,0,0,0,0,0,0,0,0,0,0,0,0,0,0,0,0,0,0,0,0,0,0,0,0,0,0,-3.8751,-3.8751,0,-3.877,-3.877,-3.877,-3.8699,-3.8697,-3.8695,-3.8693,-3.871,-3.8712,-3.8715,0,0,0,0,0,0,0,0,0,0,0,0,0,-3.865,-3.8652,-3.8751,-3.8751,-3.8751,-3.877,-3.877,-3.877,-3.8699,-3.8697,-3.8694,-3.8692,-3.8709,-3.8712,-3.8715,0,0,0,0,0,0,0,0,0,0,0,0,0,-3.8684,-3.8653,-3.8751,-3.8718,-3.8715,-3.877,-3.877,-3.877,-3.87,-3.8697,-3.8694,-3.8691,-3.8708,-3.8712,-3.8715,-3.8801,0,0,-3.8726,-3.8728,0,0,0,0,0,0,0,0,-3.8682,-3.8687,-3.8723,-3.872,-3.8718,-3.8729,-3.8741,-3.8781,-3.8701,-3.8706,-3.8693,-3.8689,-3.8719,-3.8721,-3.8732,-3.8802,-3.8803,-3.8727,-3.8729,-3.8731,-3.8732,0,0,0,0,0,0,0,-3.868,-3.8686,-3.8758,-3.8723,-3.872,-3.8701,-3.8703,-3.8748,-3.873,-3.8705,-3.87,-3.8703,-3.8717,-3.8728,-3.8732,-3.8803,-3.8727,-3.873,-3.8732,-3.8734,-3.8945,-3.8948,0,0,0,0,0,0,-3.8682,-3.8685,-3.8758,-3.8759,-3.8692,-3.8706,-3.8707,-3.8728,-3.8729,-3.8726,-3.8706,-3.87,-3.8724,-3.8727,-3.8732,-3.8833,-3.8731,-3.8734,-3.8736,-3.8941,-3.8946,-3.8949,0,0,0,0,0,0,-3.868,-3.8689,-3.8757,-3.872,-3.8728,-3.8711,-3.8735,-3.873,-3.8742,-3.873,-3.8726,-3.8722,-3.8721,-3.8727,-3.8785,-3.8833,-3.8736,-3.8739,-3.8937,-3.8943,-3.8947,-3.9036,0,0,0,0,0,0,-3.8677,-3.8689,-3.8722,-3.8722,-3.873,-3.8811,-3.8738,-3.8733,-3.8749,-3.8741,-3.8743,-3.8741,-3.8719,-3.878,-3.8788,-3.8836,-3.8742,-3.8933,-3.894,-3.8946,-3.9029,-3.9043,-3.9056,0,0,0,0,0,-3.8674,-3.8746,-3.8724,-3.8733,-3.8771,-3.8814,-3.8818,-3.8793,-3.8753,-3.8786,-3.8778,-3.8741,-3.8826,-3.8786,-3.8795,-3.8845,-3.893,-3.8938,-3.8945,-3.9023,-3.9041,-3.9056,0,0,0,0,0,0,-3.8751,-3.8745,-3.8721,-3.8795,-3.8806,-3.8801,-3.8842,-3.8813,-3.8834,-3.8826,-3.8792,-3.8793,-3.8857,-3.8856,-3.8813,-3.8928,-3.8871,-3.8881,-3.8926,-3.8943,-3.8957,-3.8956,-3.8745,0,0,0,0,0,-3.8777,-3.8813,-3.8805,-3.8871,-3.8877,-3.8859,-3.8877,-3.8856,-3.8865,-3.8869,-3.8865,-3.8875,-3.8903,-3.8923,-3.8949,-3.9028,-3.9027,-3.9066,-3.908,-3.9091,-3.91,-3.9142,-3.9159,-3.8975,-3.8975,-3.8974,0,0,-3.8831,-3.8832,-3.8856,-3.8887,-3.8892,-3.8929,-3.8863,-3.8905,-3.8932,-3.8875,-3.893,-3.8927,-3.8936,-3.9005,-3.9035,-3.9006,-3.9151,-3.9101,-3.911,-3.9113,-3.9152,-3.9169,-3.9185,-3.898,-3.8979,-3.8978,0,0,-3.8947,-3.8952,-3.9007,-3.9014,-3.9024,-3.9011,-3.9025,-3.9025,-3.9021,-3.9076,-3.9034,-3.9065,-3.9115,-3.9123,-3.9134,-3.9253,-3.9219,-3.9262,-3.9334,-3.9375,-3.9389,-3.9402,-3.9445,-3.9461,-3.9271,-3.9271,-3.9271,0,-3.9012,-3.9068,-3.9039,-3.9084,-3.9099,-3.9049,-3.9105,-3.9113,-3.913,-3.9141,-3.9108,-3.9171,-3.9172,-3.9243,-3.9272,-3.9282,-3.9296,-3.9262,-3.939,-3.9402,-3.9414,-3.9454,-3.9471,-3.9276,-3.9276,-3.9275,-3.9274,0,-3.9147,-3.9186,-3.9229,-3.9249,-3.9268,-3.9318,-3.9296,-3.9319,-3.9296,-3.9287,-3.9343,-3.9343,-3.9369,-3.9383,-3.9362,-3.9451,-3.9433,-3.9396,-3.9338,-3.9437,-3.9475,-3.949,-3.9284,-3.9282,-3.928,-3.9279,0,0,-3.9314,-3.9317,-3.9333,-3.9342,-3.9348,-3.9377,-3.9424,-3.945,-3.947,-3.9483,-3.9522,-3.9565,-3.9531,-3.9543,-3.9521,-3.9557,-3.9652,-3.9516,-3.9515,-3.9542,-3.9751,-3.978,-3.9798,-3.963,-3.9632,-3.9635,-3.975,0,-3.9429,-3.9512,-3.9488,-3.957,-3.9605,-3.9558,-3.9599,-3.9607,-3.96,-3.9628,-3.9618,-3.965,-3.9602,-3.9609,-3.9642,-3.9634,-3.9694,-3.9625,-3.9665,-3.9667,-3.9666,-3.9818,-3.9848,-3.9958,-3.9765,-3.9767,-3.9769,0,-3.9575,-3.9595,-3.9682,-3.9683,-3.9696,-3.9734,-3.9755,-3.9783,-3.979,-3.9782,-3.9796,-3.9766,-3.9812,-3.9753,-3.9816,-3.9769,-3.9784,-3.9782,-3.9786,-3.979,-3.9725,-3.9826,-3.9992,-4.0009,-3.9792,-3.979,-3.9788,0,-3.9689,-3.9738,-3.9796,-3.9804,-3.9806,-3.9834,-3.9836,-3.984,-3.9857,-3.9875,-3.9886,-3.9908,-3.9921,-3.9939,-3.9917,-3.9876,-3.9982,-3.9922,-3.9977,-3.9978,-4.0002,-4.0001,-4.0173,-4.001,-4.001,-4.001,-4.0009,0,-3.9821,-3.9876,-3.9847,-3.9883,-3.9943,-3.9913,-3.9973,-3.9969,-3.9974,-4.0008,-3.9967,-4.0,-3.9968,-3.9997,-3.9979,-4.0034,-4.0039,-4.0034,-4.0029,-4.0038,-4.0039,-4.0048,-4.004,-4.0014,-4.0013,-4.0012,-4.0011,0,-3.996,-3.9942,-4.0003,-4.0,-4.0,-4.0045,-4.0042,-4.0074,-4.0063,-4.0106,-4.0114,-4.0097,-4.0129,-4.0108,-4.014,-4.0128,-4.02,-4.0184,-4.0198,-4.0194,-4.025,-4.0246,-4.0435,-4.0459,-4.028,-4.0282,-4.0283,0,-4.0046,-4.0087,-4.0089,-4.0109,-4.0114,-4.0147,-4.0164,-4.0136,-4.0155,-4.0167,-4.0198,-4.0227,-4.0248,-4.0302,-4.0292,-4.0316,-4.03,-4.0365,-4.0304,-4.0312,-4.0302,-4.0301,-4.0305,-4.0378,-4.038,-4.0382,-4.0383,0,-4.02,-4.019,-4.0216,-4.0241,-4.0262,-4.0279,-4.0293,-4.0312,-4.0283,-4.0307,-4.034,-4.0357,-4.039,-4.0419,-4.0439,-4.044,-4.0407,-4.0402,-4.0416,-4.0427,-4.0434,-4.0432,-4.0233,-4.0398,-4.0397,-4.0396,-4.0395,-4.0394,-4.0316,-4.035,-4.0357,-4.0388,-4.0396,-4.0409,-4.044,-4.0433,-4.046,-4.0486,-4.0467,-4.0506,-4.0512,-4.0536,-4.0541,-4.057,-4.0544,-4.0564,-4.0569,-4.0575,-4.0584,-4.0429,-4.0574,-4.0573,-4.0573,-4.0572,-4.0572,0,-4.0469,-4.0471,-4.05,-4.0521,-4.0545,-4.0512,-4.0526,-4.0548,-4.0583,-4.0592,-4.0614,-4.0652,-4.068,-4.0672,-4.0696,-4.0722,-4.0707,-4.0729,-4.0728,-4.0729,-4.0605,-4.0591,-4.0741,-4.074,-4.074,-4.074,-4.074,-4.074,-4.0552,-4.0609,-4.0599,-4.0659,-4.066,-4.0699,-4.0709,-4.0722,-4.0728,-4.0773,-4.0796,-4.0791,-4.0792,-4.0817,-4.0841,-4.0838,-4.0849,-4.0877,-4.0868,-4.0754,-4.0737,-4.0721,-4.0708,-4.0879,-4.0879,-4.0989,-4.099,-4.0991]}]]